Other Surface Observations
Issued by NWS

Home | Current Version | Previous Version | Text Only | Print | Product List | Glossary On
Versions: 1 2 3 4 5 6 7 8 9 10 11 12 13 14 15 16 17 18 19 20 21 22 23 24 25 26 27 28 29 30 31 32 33 34 35 36 37 38 39 40 41 42 43 44 45 46 47 48 49 50
921
SXUS52 KTAE 231918
OSOTAE
OSOTAE
North Florida/South Alabama/Southwest Georgia Weather Roundup
National Weather Service Tallahassee Florida
200 PM EST THU FEB 23 2017

Note: "fair" indicates few or no clouds below 12,000 feet with no
significant weather and/or obstructions to visibility.

!FLZ017-115-028-034-025-232000
...North Florida...

CITY           SKY/WX    TMP DP  RH WIND       PRES   REMARKS
TALLAHASSEE    MOSUNNY   79  60  52 NE9       29.75F
APALACHICOLA   MOSUNNY   79  62  56 NE12G17   29.74F
PERRY          PTSUNNY   77  60  54 NE9G18    29.74S
CROSS CITY     PTSUNNY   77  63  61 NE15      29.70F
JACKSONVILLE   PTSUNNY   74  63  68 NE23      29.74F
$$

!FLZ112-006-005-002-011-232000
...Florida Panhandle...

CITY           SKY/WX    TMP DP  RH WIND       PRES   REMARKS
MARIANNA       MOSUNNY   76  61  59 E9        29.78F
BONIFAY        MOCLDY    79  61  53 N8        29.78F
PANAMA CITY NW FAIR      78  61  55 NE5       29.77F
TYNDALL AFB    MOSUNNY   78  61  56 NE9       29.77F
TYND DRONE APT FAIR      77  62  58 N9        29.76F
DE FUNIAK SPR  FAIR      73  60  64 E7        29.80F
EGLIN AFB      MOSUNNY   75  61  60 NE3       29.78F
DESTIN         SUNNY     76  67  73 VRB5      29.79F
HURLBURT       MOSUNNY   77  53  43 SE10      29.77F
CRESTVIEW      SUNNY     74  60  61 MISG      29.81F
PENSACOLA      SUNNY     77  60  55 NE5       29.78F
$$

!ALZ063-066-232000
...South Alabama...

CITY           SKY/WX    TMP DP  RH WIND       PRES   REMARKS
DOTHAN         PTSUNNY   74  61  63 NE8       29.83F
OZARK CAIRNS   PTSUNNY   75  61  60 N10       29.80F
FT RUCKER HELI CLOUDY    74  60  60 N6        29.79F
RUCKER HELI 3  NOT AVBL
RUCKER HELI 2  CLOUDY    75  59  57 NE8       29.78F
FLORALA APT    MOSUNNY   73  60  63 NE6       29.81F
ANDALUSIA      MOSUNNY   75  59  57 E5        29.80F
TROY           PTSUNNY   75  59  57 VRB7      29.81F
EUFALA         FAIR      77  59  53 MISG      29.80F
MOBILE         MOSUNNY   76  59  55 VRB5      29.81F
$$

!GAZ120>161-232000
...Southwest and South Central Georgia...

CITY           SKY/WX    TMP DP  RH WIND       PRES   REMARKS
THOMASVILLE    PTSUNNY   79  63  57 NE8       29.78F
BAINBRIDGE     MOSUNNY   77  61  57 NE9       29.78F
MOODY AFB      PTSUNNY   78  59  52 NE12      29.75F
VALDOSTA       MOSUNNY   77  59  53 E14       29.76F
MOULTRIE       MOSUNNY   77  59  53 NE7       29.77F
BLAKELY        PTSUNNY   77  59  53 CALM      29.81F
ALBANY         PTSUNNY   80  58  46 E13       29.81F
TIFTON         PTSUNNY   75  59  58 NE8       29.78F
FITZGERALD     MOCLDY    79  61  53 E9        29.81F
CORDELE        MOCLDY    79  56  46 E9        29.81F
AMERICUS       MOCLDY    73  54  49 E7        29.83F
HOMERVILLE     PTSUNNY   77  63  61 NE8G18    29.77F
$$

!GMZ750-755-770-775-232000
...Coastal and Buoy Obs...

STATION/POSITION TIME  TEMP    WIND        PRES    VSBY  WAVE
                       AIR SEA DIR/SP/G                  HT/PER
                 (UTC) (F)     (DEG/KT/KT) (MB)    (MI)  (FT/S)
KEATON BEACH     1900   76      50/ 12/ 15 1006.1F
CEDAR KEY        1900   76      50/ 19/ 25 1005.1F
C TOWER          1900   69      40/ 10/ 11 1007.7F
APALACHICOLA BUO 1850   69 69   20/ 17/ 21 1005.9F         5/ 6
PANAMA CITY BUOY 1850   69 71              1008.2F         4/ 6
MOBILE BUOY      NOT AVBL
ORANGE BCH AL BU 1850   65 69   30/  2/  2 1009.2F         2/ 6
$$




USA.gov is the U.S. government's official web portal to all federal, state and local government web resources and services.